Overview Statistics Trail Chart Weather Telemetry Raw packets
 

This is the latest recevied weather packets stored in our database for station/object N6ZHV-13. If no packets are shown the sender has not sent any weather packets the latest 10 day(s).

<< 79 80 81 82 83 84 85 >>
Time Temp. Humidity Pressure Rain* Wind** Luminosity Snow
1788125530 30° C 55% 1007.4 hPa 0 mm - - -
1788125229 30° C 55% 1007.5 hPa 0 mm - - -
1788124930 30° C 56% 1007.5 hPa 0 mm - - -
1788124630 29.44° C 56% 1007.6 hPa 0 mm - - -
1788124329 30° C 56% 1007.6 hPa 0 mm - - -
1788124029 29.44° C 57% 1007.7 hPa 0 mm - - -
1788123730 29.44° C 56% 1007.7 hPa 0 mm - - -
1788123430 29.44° C 56% 1007.8 hPa 0 mm - - -
1788123130 29.44° C 57% 1007.8 hPa 0 mm - - -
1788122829 29.44° C 57% 1007.8 hPa 0 mm - - -
1788122529 29.44° C 56% 1007.8 hPa 0 mm - - -
1788122233 30° C 50% 1007.8 hPa 0 mm - - -
1788122230 30° C 56% 1007.8 hPa 0 mm - - -
1788121929 30° C 56% 1007.8 hPa 0 mm - - -
1788121630 29.44° C 56% 1007.9 hPa 0 mm - - -
1788121329 30° C 55% 1007.9 hPa 0 mm - - -
1788121029 30° C 55% 1007.8 hPa 0 mm - - -
1788120730 30° C 58% 1008 hPa 0 mm - - -
1788120429 29.44° C 58% 1007.9 hPa 0 mm - - -
1788120130 30° C 56% 1007.8 hPa 0 mm - - -
1788119830 30° C 57% 1007.8 hPa 0 mm - - -
1788119530 30° C 56% 1007.7 hPa 0 mm - - -
1788119230 30.56° C 53% 1007.8 hPa 0 mm - - -
1788118929 30.56° C 54% 1007.8 hPa 0 mm - - -
1788118630 30° C 50% 1007.8 hPa 0 mm - - -

* Rain latest hour (hover to see other rain measurements)
** Current wind speed in m/s (hover to see current wind gust speed)